TimePST,TemperatureF,Dew PointF,Humidity,Sea Level PressureIn,VisibilityMPH,Wind Direction,Wind SpeedMPH,Gust SpeedMPH,PrecipitationIn,Events,Conditions,WindDirDegrees,DateUTC
12:09 AM,21.2,21.2,100,30.53,10.0,NNW,2.3,-,N/A,Snow,Light Snow,330,2013-01-02 08:09:00
12:29 AM,21.2,21.2,100,30.52,10.0,NNW,3.5,-,N/A,,Overcast,340,2013-01-02 08:29:00
12:46 AM,21.2,21.2,100,30.51,10.0,WNW,1.2,-,N/A,Snow,Light Snow,290,2013-01-02 08:46:00
12:58 AM,21.0,21.0,100,30.63,10.0,NNW,3.5,-,0.00,Snow,Light Snow,340,2013-01-02 08:58:00
1:02 AM,21.2,21.2,100,30.51,10.0,NNE,4.6,-,N/A,,Overcast,20,2013-01-02 09:02:00
1:12 AM,21.2,21.2,100,30.51,10.0,North,5.8,-,N/A,Snow,Light Snow,360,2013-01-02 09:12:00
1:41 AM,21.2,21.2,100,30.52,10.0,North,3.5,-,N/A,,Overcast,10,2013-01-02 09:41:00
1:51 AM,21.2,21.2,100,30.52,10.0,NNE,4.6,-,N/A,Snow,Light Snow,20,2013-01-02 09:51:00
1:58 AM,21.0,21.0,100,30.64,10.0,North,5.8,-,0.00,Snow,Light Snow,10,2013-01-02 09:58:00
2:00 AM,21.2,21.2,100,30.52,10.0,NNE,3.5,-,N/A,,Overcast,20,2013-01-02 10:00:00
2:46 AM,21.2,21.2,100,30.52,10.0,NNE,2.3,-,N/A,Snow,Light Snow,20,2013-01-02 10:46:00
2:58 AM,21.0,21.0,100,30.64,10.0,NNE,4.6,-,0.00,Snow,Light Snow,30,2013-01-02 10:58:00
3:06 AM,21.2,21.2,100,30.52,10.0,NNE,5.8,-,N/A,,Overcast,20,2013-01-02 11:06:00
3:58 AM,21.0,21.0,100,30.64,10.0,NNE,4.6,-,0.00,,Overcast,20,2013-01-02 11:58:00
4:58 AM,21.0,21.0,100,30.62,10.0,NNE,4.6,-,N/A,,Overcast,30,2013-01-02 12:58:00
5:58 AM,21.2,21.2,100,30.61,10.0,North,4.6,-,N/A,,Overcast,360,2013-01-02 13:58:00
6:50 AM,21.2,21.2,100,30.49,10.0,North,4.6,-,N/A,,Overcast,10,2013-01-02 14:50:00
6:51 AM,21.2,21.2,100,30.49,10.0,North,4.6,-,N/A,Snow,Light Snow,10,2013-01-02 14:51:00
6:58 AM,21.0,21.0,100,30.61,10.0,North,3.5,-,0.00,Snow,Light Snow,10,2013-01-02 14:58:00
7:00 AM,21.2,21.2,100,30.49,10.0,NNE,4.6,-,N/A,,Overcast,20,2013-01-02 15:00:00
7:58 AM,21.4,21.4,100,30.61,10.0,North,4.6,-,0.00,,Overcast,10,2013-01-02 15:58:00
8:58 AM,21.7,21.7,100,30.62,9.0,North,4.6,-,N/A,,Overcast,360,2013-01-02 16:58:00
9:25 AM,23.0,23.0,100,30.50,10.0,NNE,3.5,-,N/A,Snow,Light Snow,30,2013-01-02 17:25:00
9:35 AM,23.0,23.0,100,30.50,10.0,NNE,3.5,-,N/A,,Overcast,30,2013-01-02 17:35:00
9:58 AM,22.5,23.0,100,30.62,10.0,NE,5.8,-,N/A,,Overcast,40,2013-01-02 17:58:00
10:15 AM,23.0,23.0,100,30.51,10.0,NE,5.8,-,N/A,,Overcast,50,2013-01-02 18:15:00
10:45 AM,23.0,23.0,100,30.51,10.0,NE,3.5,-,N/A,,Overcast,50,2013-01-02 18:45:00
10:58 AM,22.8,22.8,100,30.62,10.0,NE,1.2,-,0.00,,Overcast,50,2013-01-02 18:58:00
11:58 AM,23.9,23.9,100,30.61,10.0,NNE,4.6,-,N/A,,Overcast,30,2013-01-02 19:58:00
12:19 PM,24.8,24.8,100,30.48,10.0,NE,5.8,-,N/A,,Overcast,40,2013-01-02 20:19:00
12:51 PM,24.8,23.0,93,30.47,10.0,ENE,3.5,-,N/A,,Overcast,70,2013-01-02 20:51:00
12:54 PM,24.8,23.0,93,30.47,10.0,NE,3.5,-,N/A,,Overcast,40,2013-01-02 20:54:00
12:58 PM,24.3,23.9,99,30.58,10.0,NNE,3.5,-,0.00,,Overcast,30,2013-01-02 20:58:00
1:03 PM,24.8,23.0,93,30.47,10.0,NNE,2.3,-,N/A,,Overcast,30,2013-01-02 21:03:00
1:07 PM,24.8,24.8,100,30.47,10.0,NNE,2.3,-,N/A,,Overcast,30,2013-01-02 21:07:00
1:21 PM,24.8,23.0,93,30.47,10.0,ENE,3.5,-,N/A,,Overcast,60,2013-01-02 21:21:00
1:58 PM,24.3,24.1,99,30.58,10.0,NNE,5.8,-,0.00,,Overcast,20,2013-01-02 21:58:00
2:47 PM,24.8,24.8,100,30.47,10.0,NNE,5.8,-,N/A,,Overcast,30,2013-01-02 22:47:00
2:49 PM,24.8,24.8,100,30.47,10.0,NNE,6.9,-,N/A,,Overcast,30,2013-01-02 22:49:00
2:58 PM,24.3,24.3,100,30.58,10.0,NNE,5.8,-,0.00,,Overcast,30,2013-01-02 22:58:00
3:10 PM,24.8,24.8,100,30.47,10.0,NE,6.9,-,N/A,,Overcast,40,2013-01-02 23:10:00
3:19 PM,24.8,24.8,100,30.47,10.0,NE,6.9,-,N/A,,Overcast,40,2013-01-02 23:19:00
3:58 PM,24.3,24.3,100,30.58,10.0,NNE,6.9,-,0.00,,Overcast,30,2013-01-02 23:58:00
4:58 PM,23.5,23.5,100,30.58,10.0,North,5.8,-,N/A,,Overcast,350,2013-01-03 00:58:00
5:19 PM,21.2,21.2,100,30.45,10.0,North,5.8,-,N/A,,Mostly Cloudy,350,2013-01-03 01:19:00
5:24 PM,21.2,21.2,100,30.46,10.0,North,5.8,-,N/A,,Scattered Clouds,350,2013-01-03 01:24:00
5:40 PM,21.2,21.2,100,30.45,10.0,North,5.8,-,N/A,,Clear,10,2013-01-03 01:40:00
5:58 PM,21.2,21.2,100,30.57,10.0,North,5.8,-,0.00,,Clear,10,2013-01-03 01:58:00
6:55 PM,19.4,19.4,100,30.44,10.0,North,5.8,-,N/A,Snow,Light Snow,350,2013-01-03 02:55:00
6:58 PM,19.9,19.9,100,30.56,10.0,North,5.8,-,0.00,Snow,Light Snow,360,2013-01-03 02:58:00
7:13 PM,19.4,19.4,100,30.44,10.0,North,6.9,-,N/A,,Clear,350,2013-01-03 03:13:00
7:20 PM,19.4,19.4,100,30.44,10.0,North,5.8,-,N/A,Snow,Light Snow,350,2013-01-03 03:20:00
7:30 PM,19.4,19.4,100,30.43,10.0,North,6.9,-,N/A,,Clear,350,2013-01-03 03:30:00
7:38 PM,19.4,19.4,100,30.43,10.0,North,8.1,-,N/A,Snow,Light Snow,350,2013-01-03 03:38:00
7:58 PM,18.1,18.1,100,30.56,10.0,North,6.9,-,0.00,Snow,Light Snow,360,2013-01-03 03:58:00
7:59 PM,17.6,17.6,100,30.43,10.0,North,8.1,-,N/A,,Clear,360,2013-01-03 03:59:00
8:58 PM,17.2,17.2,100,30.55,10.0,North,3.5,-,0.00,,Clear,10,2013-01-03 04:58:00
9:23 PM,17.6,17.6,100,30.42,2.5,Variable,3.5,-,N/A,,Clear,0,2013-01-03 05:23:00
9:28 PM,17.6,17.6,100,30.42,2.0,NNE,3.5,-,N/A,,Clear,20,2013-01-03 05:28:00
9:33 PM,17.6,17.6,100,30.41,6.0,NNE,4.6,-,N/A,,Clear,20,2013-01-03 05:33:00
9:58 PM,15.8,15.8,100,30.55,10.0,NNE,4.6,-,N/A,,Clear,20,2013-01-03 05:58:00
10:58 PM,17.2,17.2,100,30.53,10.0,NNE,6.9,-,N/A,,Clear,30,2013-01-03 06:58:00
11:23 PM,14.0,14.0,100,30.40,10.0,NNE,6.9,-,N/A,Snow,Light Snow,20,2013-01-03 07:23:00
11:44 PM,15.8,15.8,100,30.39,10.0,North,6.9,-,N/A,,Clear,10,2013-01-03 07:44:00
11:58 PM,16.0,16.0,100,30.52,10.0,North,5.8,-,0.00,,Clear,360,2013-01-03 07:58:00